Weather History for Yankton, SD

Change the Weather History Date:

Saturday, January 19, 2013

  Actual Average Record
Temperature  
Mean Temperature 28 °F -  
Max Temperature 46 °F 30 °F 60 °F (2014)
Min Temperature 10 °F 7 °F -29 °F (1970)
Degree Days  
Heating Degree Days 37    
Moisture  
Dew Point 22 °F    
Average Humidity 60    
Maximum Humidity 80    
Minimum Humidity 43    
Precipitation  
Precipitation 0.00 in - - ()
Sea Level Pressure  
Sea Level Pressure 30.03 in    
Wind  
Wind Speed 14 mph (WNW)    
Max Wind Speed 31 mph    
Max Gust Speed 41 mph    
Visibility 10 miles    
Events      
Averages and records for this station are not official NWS values.
T = Trace of Precipitation, MM = Missing Value Source: NWS Daily Summary

Daily Weather History Graph

Daily Weather History Graph

Search for Another Location

Airport:

Trip Planner

Search our weather history database for the weather conditions in past years. The results will help you decide how hot, cold, wet, or windy it might be!

Date:

Astronomy

Jan. 19, 2013 Rise Set
Actual Time 7:55 AM CST 5:25 PM CST
Civil Twilight 7:24 AM CST 5:56 PM CST
Nautical Twilight 6:49 AM CST 6:31 PM CST
Astronomical Twilight 6:15 AM CST 7:05 PM CST
Moon 11:54 AM CST (1/19) 1:28 AM CST (1/19)
Length of Visible Light 10h 32m
Length of Day
9h 30m
First Quarter, 57% of the Moon is Illuminated
Jan 19
First Quarter
Jan 26
Full
Feb 3
Last Quarter
Feb 10
New
Feb 17
First Quarter

Hourly Weather History & Observations

Time (CST) Temp. Windchill Dew Point Humidity Pressure Visibility Wind Dir Wind Speed Gust Speed Precip Events Conditions
12:15 AM 39.2 °F 33.0 °F 24.8 °F 56% 29.81 in 10.0 mi SW 9.2 mph - N/A   Clear
12:35 AM 39.2 °F 33.6 °F 24.8 °F 56% 29.80 in 10.0 mi SW 8.1 mph - N/A   Clear
12:55 AM 42.8 °F 37.0 °F 24.8 °F 49% 29.80 in 10.0 mi SW 10.4 mph - N/A   Clear
1:15 AM 41.0 °F 36.4 °F 24.8 °F 53% 29.79 in 10.0 mi SW 6.9 mph - N/A   Clear
1:35 AM 41.0 °F 35.8 °F 24.8 °F 53% 29.79 in 10.0 mi SSW 8.1 mph - N/A   Clear
1:55 AM 35.6 °F 29.2 °F 24.8 °F 65% 29.80 in 10.0 mi ENE 8.1 mph - N/A   Clear
2:15 AM 41.0 °F - 26.6 °F 57% 29.80 in 10.0 mi Calm Calm - N/A   Clear
2:35 AM 35.6 °F - 26.6 °F 70% 29.81 in 10.0 mi Calm Calm - N/A   Clear
2:55 AM 42.8 °F 36.2 °F 28.4 °F 57% 29.81 in 10.0 mi WSW 12.7 mph - N/A   Partly Cloudy
3:15 AM 41.0 °F 34.3 °F 26.6 °F 57% 29.80 in 10.0 mi SW 11.5 mph - N/A   Scattered Clouds
3:35 AM 41.0 °F 34.7 °F 24.8 °F 53% 29.80 in 10.0 mi SW 10.4 mph - N/A   Mostly Cloudy
3:55 AM 41.0 °F 35.2 °F 24.8 °F 53% 29.81 in 10.0 mi West 9.2 mph - N/A   Mostly Cloudy
4:15 AM 42.8 °F 35.8 °F 24.8 °F 49% 29.80 in 10.0 mi West 13.8 mph 17.3 mph N/A   Partly Cloudy
4:35 AM 42.8 °F 35.8 °F 24.8 °F 49% 29.80 in 10.0 mi West 13.8 mph - N/A   Clear
4:55 AM 41.0 °F 33.9 °F 24.8 °F 53% 29.80 in 10.0 mi WSW 12.7 mph - N/A   Clear
5:15 AM 39.2 °F 33.6 °F 24.8 °F 56% 29.81 in 10.0 mi WSW 8.1 mph - N/A   Clear
5:35 AM 37.4 °F 29.3 °F 26.6 °F 65% 29.82 in 10.0 mi West 12.7 mph - N/A   Clear
5:55 AM 37.4 °F 30.8 °F 26.6 °F 65% 29.83 in 10.0 mi West 9.2 mph - N/A   Clear
6:15 AM 37.4 °F 32.8 °F 24.8 °F 60% 29.84 in 10.0 mi West 5.8 mph - N/A   Clear
6:35 AM 37.4 °F 31.4 °F 24.8 °F 60% 29.85 in 10.0 mi West 8.1 mph - N/A   Clear
6:55 AM 37.4 °F 28.9 °F 24.8 °F 60% 29.85 in 10.0 mi West 13.8 mph - N/A   Clear
7:15 AM 37.4 °F 29.8 °F 24.8 °F 60% 29.86 in 10.0 mi West 11.5 mph - N/A   Clear
7:35 AM 37.4 °F 28.2 °F 24.8 °F 60% 29.86 in 10.0 mi West 16.1 mph - N/A   Clear
7:55 AM 39.2 °F 29.3 °F 24.8 °F 56% 29.87 in 10.0 mi West 20.7 mph - N/A   Clear
8:15 AM 39.2 °F 29.8 °F 24.8 °F 56% 29.88 in 10.0 mi West 18.4 mph - N/A   Clear
8:35 AM 39.2 °F 30.2 °F 26.6 °F 61% 29.89 in 10.0 mi WNW 17.3 mph - N/A   Clear
8:55 AM 39.2 °F 29.8 °F 26.6 °F 61% 29.90 in 10.0 mi West 18.4 mph - N/A   Clear
9:15 AM 41.0 °F 32.8 °F 26.6 °F 57% 29.92 in 10.0 mi West 16.1 mph - N/A   Clear
9:35 AM 42.8 °F 34.8 °F 26.6 °F 53% 29.93 in 10.0 mi West 17.3 mph 23.0 mph N/A   Clear
9:55 AM 42.8 °F 34.5 °F 26.6 °F 53% 29.95 in 10.0 mi WNW 18.4 mph 23.0 mph N/A   Clear
10:15 AM 42.8 °F 34.8 °F 28.4 °F 57% 29.96 in 10.0 mi WNW 17.3 mph 23.0 mph N/A   Clear
10:35 AM 42.8 °F 34.5 °F 28.4 °F 57% 29.98 in 10.0 mi WNW 18.4 mph 24.2 mph N/A   Clear
10:55 AM 44.6 °F 36.1 °F 28.4 °F 53% 29.99 in 10.0 mi WNW 21.9 mph 27.6 mph N/A   Clear
11:15 AM 44.6 °F 36.6 °F 28.4 °F 53% 30.00 in 10.0 mi WNW 19.6 mph - N/A   Clear
11:35 AM 44.6 °F 38.1 °F 30.2 °F 57% 30.00 in 10.0 mi WNW 13.8 mph - N/A   Clear
11:55 AM 44.6 °F 36.6 °F 30.2 °F 57% 30.00 in 10.0 mi WNW 19.6 mph 23.0 mph N/A   Clear
12:15 PM 46.4 °F 38.3 °F 30.2 °F 53% 30.00 in 10.0 mi WNW 23.0 mph 26.5 mph N/A   Clear
12:35 PM 46.4 °F 38.7 °F 30.2 °F 53% 29.99 in 10.0 mi WNW 20.7 mph 28.8 mph N/A   Clear
12:55 PM 46.4 °F 37.7 °F 30.2 °F 53% 30.00 in 10.0 mi WNW 26.5 mph 29.9 mph N/A   Clear
1:15 PM 46.4 °F 37.7 °F 30.2 °F 53% 30.01 in 10.0 mi WNW 26.5 mph 32.2 mph N/A   Clear
1:35 PM 46.4 °F 37.5 °F 30.2 °F 53% 30.02 in 10.0 mi NW 27.6 mph 32.2 mph N/A   Clear
1:55 PM 46.4 °F 37.7 °F 30.2 °F 53% 30.02 in 10.0 mi WNW 26.5 mph 32.2 mph N/A   Clear
2:15 PM 46.4 °F 37.4 °F 30.2 °F 53% 30.03 in 10.0 mi WNW 28.8 mph 35.7 mph N/A   Clear
2:35 PM 46.4 °F 37.0 °F 30.2 °F 53% 30.04 in 10.0 mi WNW 31.1 mph 35.7 mph N/A   Clear
2:55 PM 46.4 °F 37.2 °F 30.2 °F 53% 30.04 in 10.0 mi NW 29.9 mph 35.7 mph N/A   Partly Cloudy
3:15 PM 44.6 °F 35.3 °F 30.2 °F 57% 30.06 in 10.0 mi NW 26.5 mph 35.7 mph N/A   Scattered Clouds
3:35 PM 44.6 °F 35.1 °F 30.2 °F 57% 30.08 in 10.0 mi WNW 27.6 mph 33.4 mph N/A   Scattered Clouds
3:55 PM 42.8 °F 34.0 °F 30.2 °F 61% 30.09 in 10.0 mi WNW 20.7 mph 28.8 mph N/A   Scattered Clouds
4:15 PM 42.8 °F 33.8 °F 30.2 °F 61% 30.10 in 10.0 mi NW 21.9 mph 28.8 mph N/A   Mostly Cloudy
4:35 PM 37.4 °F 25.2 °F 26.6 °F 65% 30.13 in 10.0 mi NNW 28.8 mph 36.8 mph N/A   Mostly Cloudy
4:55 PM 32.0 °F 18.4 °F 24.8 °F 75% 30.16 in 10.0 mi NNW 26.5 mph 32.2 mph N/A   Mostly Cloudy
5:15 PM 30.2 °F 16.8 °F 23.0 °F 75% 30.17 in 10.0 mi NW 23.0 mph 28.8 mph N/A   Scattered Clouds
5:35 PM 30.2 °F 16.5 °F 19.4 °F 64% 30.18 in 10.0 mi NW 24.2 mph 36.8 mph N/A   Clear
5:55 PM 30.2 °F 16.5 °F 19.4 °F 64% 30.19 in 10.0 mi NW 24.2 mph 35.7 mph N/A   Clear
6:15 PM 28.4 °F 13.8 °F 17.6 °F 64% 30.21 in 10.0 mi NW 25.3 mph 36.8 mph N/A   Clear
6:35 PM 26.6 °F 10.8 °F 6.8 °F 43% 30.23 in 10.0 mi NW 27.6 mph 41.4 mph N/A   Clear
6:55 PM 24.8 °F 10.7 °F 14.0 °F 64% 30.25 in 10.0 mi NW 19.6 mph 32.2 mph N/A   Partly Cloudy
7:15 PM 23.0 °F 8.0 °F 17.6 °F 80% 30.27 in 10.0 mi NW 20.7 mph 26.5 mph N/A   Mostly Cloudy
7:35 PM 21.2 °F 4.5 °F 10.4 °F 63% 30.28 in 10.0 mi NNW 24.2 mph 28.8 mph N/A   Mostly Cloudy
7:55 PM 19.4 °F 3.2 °F 10.4 °F 68% 30.30 in 10.0 mi NW 20.7 mph 33.4 mph N/A   Clear
8:15 PM 19.4 °F 2.8 °F 8.6 °F 63% 30.30 in 10.0 mi NNW 21.9 mph 29.9 mph N/A   Clear
8:35 PM 17.6 °F 0.9 °F 6.8 °F 63% 30.31 in 10.0 mi NNW 20.7 mph 31.1 mph N/A   Clear
8:55 PM 15.8 °F -2.7 °F 6.8 °F 68% 30.31 in 10.0 mi NNW 24.2 mph 32.2 mph N/A   Clear
9:15 PM 15.8 °F -1.1 °F 6.8 °F 68% 30.32 in 10.0 mi NNW 19.6 mph 28.8 mph N/A   Clear
9:35 PM 15.8 °F 0.3 °F 5.0 °F 62% 30.33 in 10.0 mi NW 16.1 mph 21.9 mph N/A   Clear
9:55 PM 14.0 °F -0.8 °F 6.8 °F 73% 30.34 in 10.0 mi NNW 13.8 mph 18.4 mph N/A   Clear
10:15 PM 12.2 °F -5.8 °F 3.2 °F 67% 30.34 in 10.0 mi NNW 19.6 mph - N/A   Clear
10:35 PM 12.2 °F -2.5 °F 5.0 °F 73% 30.35 in 10.0 mi NNW 12.7 mph - N/A   Clear
10:55 PM 12.2 °F -2.5 °F 1.4 °F 62% 30.35 in 10.0 mi NNW 12.7 mph - N/A   Clear
11:15 PM 10.4 °F -5.4 °F 1.4 °F 67% 30.35 in 10.0 mi NNW 13.8 mph - N/A   Clear
11:35 PM 10.4 °F -2.4 °F 3.2 °F 73% 30.37 in 10.0 mi NW 9.2 mph - N/A   Clear
11:55 PM 10.4 °F -6.0 °F 3.2 °F 73% 30.37 in 10.0 mi NW 15.0 mph - N/A   Clear